Aérodrome :
LOGIN :

S'inscrire | Disclaimer

   EN    FR    IT 

 










Légende :    VFR   VFR Marginal   IFR   IFR Intensif   IFR Très Intensif
Visi : 
Plafond : 
>= 8 km
>= 3000ft
5 à 8 km
1000 à 3000 ft
1500m à 5 km
500 à 1000 ft
800 à 1500m
200 à 500 ft
< 800m
< 200 ft
Symboles :   Orages  Brouillard  Fortes neiges  Fortes précipitations  Vent > 20 kt
SIGMETs :   Divers  Orages  Givrage  Turbulence  Onde Orograph.  Cendres Volcan.







- Altitude de l'aérodrome : 885 ft
- Code IATA : BAS
- Voir les cartes d'approche


LFSB - Bale-Mulhouse

DERNIER METAR :
  • 221600Z 18006KT CAVOK 11/05 Q1012 NOSIG

METARs EXPIRÉS :
  • 221530Z 17004KT CAVOK 13/05 Q1012 NOSIG
  • 221500Z VRB02KT CAVOK 15/06 Q1012 NOSIG
  • 221430Z 17003KT CAVOK 15/05 Q1012 NOSIG
  • 221400Z VRB03KT CAVOK 15/05 Q1012 NOSIG
  • 221330Z 15004KT 130V200 CAVOK 15/05 Q1012 NOSIG

TAF TAF LFSB
Valide du 22 à 12h jusqu'au 23 à 12h UTC


221101Z 2212/2312 17006KT CAVOK
PROB40
TEMPO 2310/2312 23010KT
Météo : +33 3 89 90 31 11
Pas de NOTAMs connus pour ce terrain.



MET'MAP, la Météo Aéronautique d'un coup d'oeil ! - Copyright ORBIFLY Décembre 2007 - Disclaimer

ORBIFLY MET'MAP TEAM :

Programmation & Développement : Alexandra Zaïnal
Conception & Développement : Baudouin d'Aumeries
Co-Programmation & Développement : Marc-Olivier Méhu
Soutien technique & logistique : Manuel Goepfert

Contact : metmap@orbifly.com




SOURCES & CREDITS :

   NOAA